Wautoma, WI

7:28 PM CDT on October 21, 2017 (GMT -0500)
Wautoma

Weather History for KY50 - October, 2012

Change the Weather History Date:

Wednesday, October 10, 2012

  Actual Average (KPCZ) Record (KPCZ)
Temperature  
Mean Temperature 39 °F -  
Max Temperature 47 °F 58 °F 83 °F (1949)
Min Temperature 31 °F 38 °F 21 °F (1964)
Degree Days  
Heating Degree Days 26    
Moisture  
Dew Point 28 °F    
Average Humidity 71    
Maximum Humidity 92    
Minimum Humidity 39    
Precipitation  
Precipitation 0.00 in - - ()
Sea Level Pressure  
Sea Level Pressure 30.03 in    
Wind  
Wind Speed 7 mph (West)    
Max Wind Speed 21 mph    
Max Gust Speed 26 mph    
Visibility 10 miles    
Events      
Averages and records for this station are not official NWS values.
T = Trace of Precipitation, MM = Missing Value Source: NWS Daily Summary

Daily Weather History Graph

Daily Weather History Graph

Search for Another Location

Airport or City:

Trip Planner

Search our weather history database for the weather conditions in past years. The results will help you decide how hot, cold, wet, or windy it might be!

Date:

Astronomy

Oct. 10, 2012 Rise Set
Actual Time 7:06 AM CDT 6:21 PM CDT
Civil Twilight 6:37 AM CDT 6:49 PM CDT
Nautical Twilight 6:03 AM CDT 7:23 PM CDT
Astronomical Twilight 5:30 AM CDT 7:56 PM CDT
Moon 1:32 AM CDT (10/10) 3:32 PM CDT (10/10)
Length of Visible Light 12h 12m
Length of Day
11h 14m
Waning Crescent, 27% of the Moon is Illuminated
Oct 10
Waning Crescent
Oct 15
New
Oct 21
First Quarter
Oct 29
Full
Nov 6
Last Quarter

Hourly Weather History & Observations

Time (CDT) Temp. Windchill Dew Point Humidity Pressure Visibility Wind Dir Wind Speed Gust Speed Precip Events Conditions
12:56 AM 36.9 °F 30.1 °F 34.0 °F 89% 29.88 in 10.0 mi West 9.2 mph - N/A   Clear
1:56 AM 34.9 °F - 32.9 °F 92% 29.91 in 10.0 mi Calm Calm - N/A   Partly Cloudy
2:56 AM 34.0 °F - 32.0 °F 92% 29.91 in 10.0 mi Calm Calm - N/A   Clear
3:56 AM 32.9 °F - 30.0 °F 89% 29.93 in 10.0 mi Calm Calm - N/A   Clear
4:56 AM 32.0 °F 26.4 °F 29.1 °F 89% 29.94 in 10.0 mi West 5.8 mph - N/A   Clear
5:56 AM 32.0 °F 26.4 °F 29.1 °F 89% 29.97 in 9.0 mi West 5.8 mph - N/A   Clear
6:56 AM 31.1 °F 24.5 °F 29.1 °F 92% 29.99 in 10.0 mi West 6.9 mph - N/A   Scattered Clouds
7:56 AM 34.0 °F 28.0 °F 29.1 °F 82% 30.02 in 10.0 mi WNW 6.9 mph - N/A   Clear
8:56 AM 36.9 °F 28.7 °F 30.0 °F 76% 30.03 in 10.0 mi WNW 12.7 mph - N/A   Clear
9:56 AM 37.9 °F 28.9 °F 30.0 °F 73% 30.06 in 10.0 mi WNW 16.1 mph 19.6 mph N/A   Scattered Clouds
10:56 AM 41.0 °F 33.5 °F 28.0 °F 60% 30.06 in 10.0 mi WNW 13.8 mph 19.6 mph N/A   Partly Cloudy
11:56 AM 41.0 °F 32.5 °F 24.1 °F 51% 30.07 in 10.0 mi WNW 17.3 mph 26.5 mph N/A   Mostly Cloudy
12:56 PM 43.9 °F 35.4 °F 24.1 °F 46% 30.07 in 10.0 mi West 20.7 mph 25.3 mph N/A   Mostly Cloudy
1:56 PM 45.9 °F 38.3 °F 25.2 °F 44% 30.06 in 10.0 mi West 19.6 mph 25.3 mph N/A   Overcast
2:56 PM 45.9 °F 38.8 °F 24.1 °F 42% 30.07 in 10.0 mi West 17.3 mph 23.0 mph N/A   Mostly Cloudy
3:56 PM 47.8 °F - 24.1 °F 39% 30.06 in 10.0 mi West 18.4 mph 25.3 mph N/A   Scattered Clouds
4:56 PM 46.9 °F - 24.1 °F 41% 30.07 in 10.0 mi West 12.7 mph - N/A   Partly Cloudy
5:56 PM 45.0 °F 40.6 °F 24.1 °F 44% 30.09 in 10.0 mi West 8.1 mph - N/A   Clear
6:56 PM 39.9 °F - 25.2 °F 56% 30.10 in 10.0 mi Calm Calm - N/A   Clear
7:56 PM 34.9 °F - 27.1 °F 73% 30.10 in 10.0 mi Calm Calm - N/A   Clear
8:56 PM 32.9 °F - 30.0 °F 89% 30.11 in 10.0 mi Calm Calm - N/A   Clear
9:56 PM 32.9 °F - 29.1 °F 86% 30.10 in 10.0 mi Calm Calm - N/A   Mostly Cloudy
10:56 PM 34.9 °F - 32.0 °F 89% 30.09 in 10.0 mi Calm Calm - N/A   Mostly Cloudy
11:56 PM 34.9 °F - 32.0 °F 89% 30.07 in 10.0 mi Calm Calm - N/A   Mostly Cloudy